Location: Buckland
(65.9785°N, 161.1281°W)
Time: 05:06:24
(UTC+00:00)

Transit 4A - Pass Details

Date: 29 November 2020
Orbit: 864 x 980 km, 66.8° (Epoch: 26 January)

Event Time Altitude Azimuth Distance (km) Brightness Sun altitude
Rises 01:09:39 0° 293° (WNW) 3,693 11.2 -2.4°
Reaches altitude 10° 01:12:13 10° 292° (WNW) 2,744 10.6 -2.5°
Maximum altitude 01:18:39 74° 209° (SSW) 1,019 8.4 -2.9°
Drops below altitude 10° 01:24:58 10° 126° (SE) 2,702 10.3 -3.3°
Sets 01:27:29 0° 125° (SE) 3,633 10.9 -3.5°
